Weather History for Woodward, OK

Change the Weather History Date:

Saturday, January 12, 2013

  Actual Average (KGAG) Record (KGAG)
Temperature  
Mean Temperature 28 °F -  
Max Temperature 37 °F 45 °F 73 °F (2014)
Min Temperature 19 °F 18 °F -9 °F (1963)
Degree Days  
Heating Degree Days 37    
Moisture  
Dew Point 20 °F    
Average Humidity 72    
Maximum Humidity 93    
Minimum Humidity 44    
Precipitation  
Precipitation 0.00 in - - ()
Sea Level Pressure  
Sea Level Pressure 30.03 in    
Wind  
Wind Speed 11 mph (North)    
Max Wind Speed 21 mph    
Max Gust Speed 25 mph    
Visibility 9 miles    
Events Snow    
Averages and records for this station are not official NWS values.
T = Trace of Precipitation, MM = Missing Value Source: NWS Daily Summary

Daily Weather History Graph

Daily Weather History Graph

Search for Another Location

Airport:

Trip Planner

Search our weather history database for the weather conditions in past years. The results will help you decide how hot, cold, wet, or windy it might be!

Date:

Astronomy

Jan. 12, 2013 Rise Set
Actual Time 7:49 AM CST 5:43 PM CST
Civil Twilight 7:21 AM CST 6:11 PM CST
Nautical Twilight 6:49 AM CST 6:43 PM CST
Astronomical Twilight 6:18 AM CST 7:14 PM CST
Moon 8:12 AM CST (1/12) 7:10 PM CST (1/12)
Length of Visible Light 10h 50m
Length of Day
9h 54m
New Moon, 1% of the Moon is Illuminated
Jan 12
New Moon
Jan 18
First Quarter
Jan 26
Full
Feb 3
Last Quarter
Feb 10
New

Hourly Weather History & Observations

Time (CST) Temp. Windchill Dew Point Humidity Pressure Visibility Wind Dir Wind Speed Gust Speed Precip Events Conditions
12:15 AM 37.4 °F 30.3 °F 28.4 °F 70% 29.87 in 10.0 mi NW 10.4 mph - N/A   Clear
12:35 AM 37.4 °F 32.1 °F 28.4 °F 70% 29.88 in 10.0 mi NW 6.9 mph - N/A   Clear
12:55 AM 37.4 °F 33.8 °F 30.2 °F 75% 29.90 in 10.0 mi NNW 4.6 mph - N/A   Clear
1:15 AM 35.6 °F 31.7 °F 30.2 °F 81% 29.92 in 10.0 mi NNW 4.6 mph - N/A   Clear
1:35 AM 35.6 °F 30.7 °F 30.2 °F 81% 29.93 in 10.0 mi NNW 5.8 mph - N/A   Clear
1:55 AM 35.6 °F 29.9 °F 30.2 °F 81% 29.95 in 10.0 mi North 6.9 mph - N/A   Clear
2:15 AM 35.6 °F 27.5 °F 28.4 °F 75% 29.95 in 10.0 mi North 11.5 mph 17.3 mph N/A   Clear
2:55 AM 33.8 °F 23.9 °F 26.6 °F 75% 29.96 in 10.0 mi North 15.0 mph 19.6 mph N/A   Clear
3:15 AM 32.0 °F 23.0 °F 28.4 °F 87% 29.96 in 10.0 mi North 11.5 mph 16.1 mph N/A   Clear
3:35 AM 32.0 °F 23.6 °F 28.4 °F 87% 29.98 in 10.0 mi North 10.4 mph - N/A   Clear
3:55 AM 32.0 °F 23.0 °F 26.6 °F 80% 29.97 in 10.0 mi North 11.5 mph - N/A   Clear
4:15 AM 32.0 °F 22.5 °F 26.6 °F 80% 29.97 in 10.0 mi North 12.7 mph - N/A   Mostly Cloudy
4:35 AM 32.0 °F 22.5 °F 23.0 °F 69% 29.97 in 10.0 mi North 12.7 mph 18.4 mph N/A   Scattered Clouds
4:55 AM 32.0 °F 23.0 °F 23.0 °F 69% 29.98 in 10.0 mi North 11.5 mph - N/A   Clear
5:15 AM 30.2 °F 20.8 °F 23.0 °F 75% 29.98 in 10.0 mi NNW 11.5 mph - N/A   Mostly Cloudy
5:35 AM 30.2 °F 21.3 °F 23.0 °F 75% 29.98 in 10.0 mi North 10.4 mph - N/A   Mostly Cloudy
5:55 AM 30.2 °F 21.3 °F 21.2 °F 69% 29.99 in 10.0 mi North 10.4 mph - N/A   Overcast
6:15 AM 30.2 °F 20.8 °F 23.0 °F 75% 30.01 in 10.0 mi North 11.5 mph - N/A   Overcast
6:35 AM 30.2 °F 21.3 °F 23.0 °F 75% 30.00 in 10.0 mi North 10.4 mph - N/A   Overcast
6:55 AM 30.2 °F 21.9 °F 21.2 °F 69% 30.00 in 10.0 mi North 9.2 mph - N/A   Scattered Clouds
7:15 AM 30.2 °F 20.2 °F 21.2 °F 69% 30.01 in 10.0 mi North 12.7 mph - N/A   Mostly Cloudy
7:35 AM 30.2 °F 20.8 °F 21.2 °F 69% 30.02 in 10.0 mi North 11.5 mph - N/A   Mostly Cloudy
7:55 AM 30.2 °F 20.8 °F 21.2 °F 69% 30.03 in 10.0 mi North 11.5 mph - N/A   Overcast
8:15 AM 30.2 °F 20.2 °F 19.4 °F 64% 30.04 in 10.0 mi North 12.7 mph 20.7 mph N/A   Overcast
8:35 AM 30.2 °F 20.8 °F 21.2 °F 69% 30.06 in 10.0 mi North 11.5 mph - N/A   Overcast
8:55 AM 30.2 °F 19.3 °F 21.2 °F 69% 30.05 in 10.0 mi North 15.0 mph - N/A   Overcast
9:15 AM 30.2 °F 18.9 °F 19.4 °F 64% 30.05 in 10.0 mi North 16.1 mph - N/A   Overcast
9:35 AM 30.2 °F 18.9 °F 19.4 °F 64% 30.04 in 10.0 mi North 16.1 mph - N/A   Overcast
9:55 AM 30.2 °F 19.8 °F 19.4 °F 64% 30.05 in 10.0 mi North 13.8 mph 19.6 mph N/A   Overcast
10:15 AM 30.2 °F 18.9 °F 17.6 °F 60% 30.05 in 10.0 mi North 16.1 mph - N/A   Overcast
10:35 AM 30.2 °F 18.9 °F 17.6 °F 60% 30.05 in 10.0 mi North 16.1 mph - N/A   Overcast
10:55 AM 30.2 °F 18.9 °F 15.8 °F 55% 30.05 in 10.0 mi North 16.1 mph 23.0 mph N/A   Overcast
11:15 AM 30.2 °F 19.3 °F 14.0 °F 51% 30.06 in 10.0 mi North 15.0 mph 20.7 mph N/A   Overcast
11:35 AM 30.2 °F 19.3 °F 14.0 °F 51% 30.05 in 10.0 mi North 15.0 mph 23.0 mph N/A   Overcast
11:55 AM 30.2 °F 18.5 °F 14.0 °F 51% 30.02 in 10.0 mi North 17.3 mph 21.9 mph N/A   Overcast
12:15 PM 30.2 °F 19.3 °F 12.2 °F 47% 30.02 in 10.0 mi North 15.0 mph 21.9 mph N/A   Overcast
12:35 PM 30.2 °F 19.3 °F 12.2 °F 47% 30.02 in 10.0 mi North 15.0 mph 25.3 mph N/A   Mostly Cloudy
12:55 PM 30.2 °F 19.3 °F 14.0 °F 51% 30.01 in 10.0 mi North 15.0 mph - N/A   Mostly Cloudy
1:15 PM 30.2 °F 19.3 °F 12.2 °F 47% 30.01 in 10.0 mi North 15.0 mph 24.2 mph N/A   Overcast
1:35 PM 30.2 °F 19.3 °F 10.4 °F 44% 30.01 in 10.0 mi North 15.0 mph - N/A   Overcast
1:55 PM 30.2 °F 18.1 °F 12.2 °F 47% 30.01 in 10.0 mi NNW 18.4 mph 21.9 mph N/A   Overcast
2:15 PM 30.2 °F 18.9 °F 12.2 °F 47% 30.01 in 10.0 mi North 16.1 mph 21.9 mph N/A   Overcast
2:35 PM 30.2 °F 17.4 °F 10.4 °F 44% 30.01 in 10.0 mi NNW 20.7 mph 25.3 mph N/A   Overcast
2:55 PM 28.4 °F 15.8 °F 10.4 °F 47% 30.02 in 10.0 mi NNW 18.4 mph 24.2 mph N/A   Overcast
3:15 PM 28.4 °F 16.2 °F 15.8 °F 59% 30.03 in 10.0 mi NNW 17.3 mph 21.9 mph N/A   Overcast
3:35 PM 26.6 °F 13.8 °F 17.6 °F 69% 30.03 in 10.0 mi NNW 17.3 mph - N/A   Overcast
3:55 PM 26.6 °F 14.3 °F 19.4 °F 74% 30.04 in 10.0 mi NNW 16.1 mph 24.2 mph N/A   Overcast
4:15 PM 26.6 °F 15.7 °F 19.4 °F 74% 30.03 in 10.0 mi NNW 12.7 mph 18.4 mph N/A Snow Light Snow
4:35 PM 26.6 °F 15.7 °F 21.2 °F 80% 30.05 in 4.0 mi NNW 12.7 mph - N/A Snow Light Snow
4:55 PM 26.6 °F 14.7 °F 21.2 °F 80% 30.04 in 1.8 mi North 15.0 mph - N/A Snow Light Snow
5:15 PM 24.8 °F 14.6 °F 21.2 °F 86% 30.04 in 0.8 mi North 10.4 mph - N/A Snow Light Snow
5:35 PM 24.8 °F 14.0 °F 21.2 °F 86% 30.04 in 1.2 mi North 11.5 mph - N/A Snow Light Snow
5:55 PM 24.8 °F 14.6 °F 21.2 °F 86% 30.05 in 2.5 mi North 10.4 mph - N/A Snow Light Snow
6:15 PM 23.0 °F 12.4 °F 21.2 °F 93% 30.05 in 4.0 mi North 10.4 mph - N/A Snow Light Snow
6:35 PM 23.0 °F 13.1 °F 21.2 °F 93% 30.06 in 5.0 mi North 9.2 mph - N/A Snow Light Snow
6:55 PM 23.0 °F 13.1 °F 21.2 °F 93% 30.06 in 10.0 mi North 9.2 mph - N/A Snow Light Snow
7:15 PM 23.0 °F 13.9 °F 21.2 °F 93% 30.07 in 7.0 mi North 8.1 mph - N/A Snow Light Snow
7:35 PM 23.0 °F 14.7 °F 21.2 °F 93% 30.07 in 10.0 mi NNE 6.9 mph - N/A   Overcast
7:55 PM 23.0 °F 15.8 °F 21.2 °F 93% 30.08 in 10.0 mi NNE 5.8 mph - N/A   Overcast
8:15 PM 23.0 °F 15.8 °F 21.2 °F 93% 30.08 in 10.0 mi NNE 5.8 mph - N/A   Overcast
8:35 PM 23.0 °F 14.7 °F 21.2 °F 93% 30.09 in 10.0 mi NNE 6.9 mph - N/A   Overcast
8:55 PM 23.0 °F 13.9 °F 21.2 °F 93% 30.09 in 10.0 mi North 8.1 mph - N/A   Overcast
9:15 PM 23.0 °F 15.8 °F 19.4 °F 86% 30.09 in 10.0 mi North 5.8 mph - N/A   Overcast
9:35 PM 21.2 °F 13.6 °F 17.6 °F 86% 30.09 in 10.0 mi North 5.8 mph - N/A   Scattered Clouds
9:55 PM 19.4 °F 11.5 °F 15.8 °F 86% 30.10 in 10.0 mi North 5.8 mph - N/A   Scattered Clouds
10:15 PM 21.2 °F 11.7 °F 17.6 °F 86% 30.12 in 10.0 mi NNW 8.1 mph - N/A   Mostly Cloudy
10:35 PM 21.2 °F 13.6 °F 15.8 °F 80% 30.12 in 10.0 mi North 5.8 mph - N/A   Overcast
10:55 PM 21.2 °F 13.6 °F 15.8 °F 80% 30.12 in 10.0 mi North 5.8 mph - N/A   Overcast
11:15 PM 21.2 °F 10.1 °F 14.0 °F 74% 30.09 in 10.0 mi North 10.4 mph - N/A   Mostly Cloudy
11:35 PM 19.4 °F 7.9 °F 14.0 °F 80% 30.08 in 10.0 mi North 10.4 mph - N/A   Clear
11:55 PM 19.4 °F 10.4 °F 12.2 °F 74% 30.11 in 10.0 mi North 6.9 mph - N/A   Clear